Time,TemperatureF,DewpointF,PressureIn,WindDirection,WindDirectionDegrees,WindSpeedMPH,WindSpeedGustMPH,Humidity,HourlyPrecipIn,Conditions,Clouds,dailyrainin,SoftwareType,DateUTC
2013-08-06 00:01:00,65.0,23.0,-100.00,ESE,116,7.0,8.0,20,-99.99,,,-99.99,,2013-08-06 07:01:00,
2013-08-06 00:11:00,65.0,23.0,-100.00,ESE,116,7.0,8.0,20,-99.99,,,-99.99,,2013-08-06 07:11:00,
2013-08-06 00:32:00,63.0,21.0,-100.00,SE,131,9.0,12.0,20,-99.99,,,-99.99,,2013-08-06 07:32:00,
2013-08-06 00:43:00,63.0,21.0,-100.00,ESE,121,8.0,12.0,20,-99.99,,,-99.99,,2013-08-06 07:43:00,
2013-08-06 00:53:00,63.0,21.0,-100.00,ESE,121,8.0,12.0,20,-99.99,,,-99.99,,2013-08-06 07:53:00,
2013-08-06 01:01:00,63.0,20.0,-100.00,ESE,117,5.0,6.0,19,-99.99,,,-99.99,,2013-08-06 08:01:00,
2013-08-06 01:11:00,63.0,20.0,-100.00,ESE,117,5.0,6.0,19,-99.99,,,-99.99,,2013-08-06 08:11:00,
2013-08-06 01:21:00,63.0,20.0,-100.00,ESE,117,5.0,6.0,19,-99.99,,,-99.99,,2013-08-06 08:21:00,
2013-08-06 01:32:00,63.0,20.0,-100.00,ESE,117,5.0,6.0,19,-99.99,,,-99.99,,2013-08-06 08:32:00,
2013-08-06 01:52:00,63.0,20.0,-100.00,ESE,120,7.0,9.0,19,-99.99,,,-99.99,,2013-08-06 08:52:00,
2013-08-06 02:01:00,63.0,20.0,-100.00,ESE,120,7.0,9.0,19,-99.99,,,-99.99,,2013-08-06 09:01:00,
2013-08-06 02:11:00,63.0,19.0,-100.00,ESE,106,10.0,13.0,18,-99.99,,,-99.99,,2013-08-06 09:11:00,
2013-08-06 02:22:00,63.0,19.0,-100.00,ESE,106,10.0,13.0,18,-99.99,,,-99.99,,2013-08-06 09:22:00,
2013-08-06 02:32:00,63.0,19.0,-100.00,ESE,106,10.0,13.0,18,-99.99,,,-99.99,,2013-08-06 09:32:00,
2013-08-06 02:52:00,61.0,18.0,-100.00,East,97,11.0,13.0,19,-99.99,,,-99.99,,2013-08-06 09:52:00,
2013-08-06 03:01:00,61.0,18.0,-100.00,East,97,11.0,13.0,19,-99.99,,,-99.99,,2013-08-06 10:01:00,
2013-08-06 03:11:00,61.0,18.0,-100.00,East,97,11.0,13.0,19,-99.99,,,-99.99,,2013-08-06 10:11:00,
2013-08-06 04:11:00,61.0,16.0,-100.00,ESE,113,10.0,12.0,17,-99.99,,,-99.99,,2013-08-06 11:11:00,
2013-08-06 04:21:00,61.0,16.0,-100.00,ESE,113,10.0,12.0,17,-99.99,,,-99.99,,2013-08-06 11:21:00,
2013-08-06 04:32:00,59.0,16.0,-100.00,SE,133,5.0,9.0,18,-99.99,,,-99.99,,2013-08-06 11:32:00,
2013-08-06 04:43:00,59.0,16.0,-100.00,SE,133,5.0,9.0,18,-99.99,,,-99.99,,2013-08-06 11:43:00,
2013-08-06 04:53:00,58.0,16.0,-100.00,SE,134,2.0,4.0,19,-99.99,,,-99.99,,2013-08-06 11:53:00,
2013-08-06 05:01:00,58.0,16.0,-100.00,SE,134,2.0,4.0,19,-99.99,,,-99.99,,2013-08-06 12:01:00,
2013-08-06 05:11:00,54.0,15.0,-100.00,SE,131,2.0,4.0,21,-99.99,,,-99.99,,2013-08-06 12:11:00,
2013-08-06 05:21:00,54.0,15.0,-100.00,SE,131,2.0,4.0,21,-99.99,,,-99.99,,2013-08-06 12:21:00,
2013-08-06 05:31:00,54.0,15.0,-100.00,SE,131,2.0,4.0,21,-99.99,,,-99.99,,2013-08-06 12:31:00,
2013-08-06 05:43:00,55.0,15.0,-100.00,ESE,104,0.0,2.0,20,-99.99,,,-99.99,,2013-08-06 12:43:00,
2013-08-06 05:52:00,55.0,15.0,-100.00,ESE,104,0.0,2.0,20,-99.99,,,-99.99,,2013-08-06 12:52:00,
2013-08-06 06:32:00,51.0,14.0,-100.00,North,-999,-999.0,-999.0,22,-99.99,,,-99.99,,2013-08-06 13:32:00,
2013-08-06 06:42:00,51.0,14.0,-100.00,ENE,69,0.0,3.0,22,-99.99,,,-99.99,,2013-08-06 13:42:00,
2013-08-06 06:53:00,51.0,14.0,-100.00,ENE,69,0.0,3.0,22,-99.99,,,-99.99,,2013-08-06 13:53:00,
2013-08-06 07:01:00,51.0,14.0,-100.00,NE,44,0.0,2.0,22,-99.99,,,-99.99,,2013-08-06 14:01:00,
2013-08-06 07:11:00,51.0,14.0,-100.00,NE,44,0.0,2.0,22,-99.99,,,-99.99,,2013-08-06 14:11:00,
2013-08-06 07:21:00,51.0,14.0,-100.00,NE,44,0.0,2.0,22,-99.99,,,-99.99,,2013-08-06 14:21:00,
2013-08-06 07:32:00,56.0,16.0,-100.00,SSE,160,3.0,5.0,20,-99.99,,,-99.99,,2013-08-06 14:32:00,
2013-08-06 07:42:00,56.0,16.0,-100.00,SSE,160,3.0,5.0,20,-99.99,,,-99.99,,2013-08-06 14:42:00,
2013-08-06 07:53:00,64.0,15.0,-100.00,SSE,162,0.0,3.0,15,-99.99,,,-99.99,,2013-08-06 14:53:00,
2013-08-06 08:02:00,64.0,15.0,-100.00,SSE,162,0.0,3.0,15,-99.99,,,-99.99,,2013-08-06 15:02:00,
2013-08-06 08:11:00,64.0,15.0,-100.00,SSE,162,0.0,3.0,15,-99.99,,,-99.99,,2013-08-06 15:11:00,
2013-08-06 08:33:00,69.0,16.0,-100.00,SE,143,5.0,7.0,13,-99.99,,,-99.99,,2013-08-06 15:33:00,
2013-08-06 08:43:00,71.0,16.0,-100.00,SSE,167,3.0,7.0,12,-99.99,,,-99.99,,2013-08-06 15:43:00,
2013-08-06 08:52:00,71.0,16.0,-100.00,SSE,167,3.0,7.0,12,-99.99,,,-99.99,,2013-08-06 15:52:00,
2013-08-06 09:01:00,73.0,15.0,-100.00,SW,224,1.0,4.0,11,-99.99,,,-99.99,,2013-08-06 16:01:00,
2013-08-06 09:11:00,73.0,15.0,-100.00,SW,224,1.0,4.0,11,-99.99,,,-99.99,,2013-08-06 16:11:00,
2013-08-06 09:22:00,74.0,20.0,-100.00,NW,316,2.0,5.0,13,-99.99,,,-99.99,,2013-08-06 16:22:00,
2013-08-06 09:32:00,74.0,20.0,-100.00,NW,316,2.0,5.0,13,-99.99,,,-99.99,,2013-08-06 16:32:00,
2013-08-06 09:42:00,76.0,18.0,-100.00,NNW,346,5.0,8.0,11,-99.99,,,-99.99,,2013-08-06 16:42:00,
2013-08-06 09:52:00,76.0,18.0,-100.00,NNW,346,5.0,8.0,11,-99.99,,,-99.99,,2013-08-06 16:52:00,
2013-08-06 10:02:00,78.0,17.0,-100.00,NW,305,4.0,8.0,10,-99.99,,,-99.99,,2013-08-06 17:02:00,
2013-08-06 10:11:00,78.0,17.0,-100.00,NW,305,4.0,8.0,10,-99.99,,,-99.99,,2013-08-06 17:11:00,
2013-08-06 10:43:00,80.0,16.0,-100.00,NW,306,2.0,7.0,9,-99.99,,,-99.99,,2013-08-06 17:43:00,
2013-08-06 10:52:00,80.0,16.0,-100.00,NW,306,2.0,7.0,9,-99.99,,,-99.99,,2013-08-06 17:52:00,
2013-08-06 11:01:00,82.0,18.0,-100.00,West,270,4.0,8.0,9,-99.99,,,-99.99,,2013-08-06 18:01:00,
2013-08-06 11:11:00,82.0,18.0,-100.00,West,270,4.0,8.0,9,-99.99,,,-99.99,,2013-08-06 18:11:00,
2013-08-06 11:22:00,82.0,18.0,-100.00,West,270,4.0,8.0,9,-99.99,,,-99.99,,2013-08-06 18:22:00,
2013-08-06 11:32:00,83.0,18.0,-100.00,WNW,284,4.0,10.0,9,-99.99,,,-99.99,,2013-08-06 18:32:00,
2013-08-06 11:43:00,84.0,19.0,-100.00,NW,322,7.0,19.0,9,-99.99,,,-99.99,,2013-08-06 18:43:00,
2013-08-06 11:52:00,84.0,19.0,-100.00,NW,322,7.0,19.0,9,-99.99,,,-99.99,,2013-08-06 18:52:00,
2013-08-06 12:01:00,84.0,19.0,-100.00,North,6,4.0,8.0,9,-99.99,,,-99.99,,2013-08-06 19:01:00,
2013-08-06 12:11:00,84.0,19.0,-100.00,North,6,4.0,8.0,9,-99.99,,,-99.99,,2013-08-06 19:11:00,
2013-08-06 12:21:00,85.0,20.0,-100.00,WNW,295,5.0,14.0,9,-99.99,,,-99.99,,2013-08-06 19:21:00,
2013-08-06 12:32:00,85.0,20.0,-100.00,WNW,295,5.0,14.0,9,-99.99,,,-99.99,,2013-08-06 19:32:00,
2013-08-06 12:42:00,82.0,18.0,-100.00,NNW,347,6.0,11.0,9,-99.99,,,-99.99,,2013-08-06 19:42:00,
2013-08-06 12:52:00,82.0,18.0,-100.00,NNW,347,6.0,11.0,9,-99.99,,,-99.99,,2013-08-06 19:52:00,
2013-08-06 13:01:00,82.0,18.0,-100.00,NNW,347,6.0,11.0,9,-99.99,,,-99.99,,2013-08-06 20:01:00,
2013-08-06 13:22:00,82.0,19.0,-100.00,North,-999,-999.0,-999.0,10,-99.99,,,-99.99,,2013-08-06 20:22:00,
2013-08-06 13:43:00,83.0,21.0,-100.00,East,88,18.0,29.0,10,-99.99,,,-99.99,,2013-08-06 20:43:00,
2013-08-06 13:51:00,84.0,22.0,-100.00,East,93,13.0,22.0,10,-99.99,,,-99.99,,2013-08-06 20:51:00,
2013-08-06 13:52:00,83.0,21.0,-100.00,East,88,18.0,29.0,10,-99.99,,,-99.99,,2013-08-06 20:52:00,
2013-08-06 14:11:00,85.0,22.0,-100.00,East,89,16.0,26.0,10,-99.99,,,-99.99,,2013-08-06 21:11:00,
2013-08-06 14:22:00,85.0,22.0,-100.00,East,89,16.0,26.0,10,-99.99,,,-99.99,,2013-08-06 21:22:00,
2013-08-06 14:43:00,84.0,22.0,-100.00,East,93,13.0,22.0,10,-99.99,,,-99.99,,2013-08-06 21:43:00,
2013-08-06 15:11:00,82.0,20.0,-100.00,ESE,103,9.0,17.0,10,-99.99,,,-99.99,,2013-08-06 22:11:00,
2013-08-06 15:21:00,82.0,20.0,-100.00,ESE,103,9.0,17.0,10,-99.99,,,-99.99,,2013-08-06 22:21:00,
2013-08-06 15:32:00,82.0,20.0,-100.00,ESE,103,9.0,17.0,10,-99.99,,,-99.99,,2013-08-06 22:32:00,
2013-08-06 15:43:00,83.0,21.0,-100.00,SSE,167,2.0,7.0,10,-99.99,,,-99.99,,2013-08-06 22:43:00,
2013-08-06 15:53:00,83.0,21.0,-100.00,SSE,167,2.0,7.0,10,-99.99,,,-99.99,,2013-08-06 22:53:00,
2013-08-06 16:01:00,83.0,21.0,-100.00,SSE,167,2.0,7.0,10,-99.99,,,-99.99,,2013-08-06 23:01:00,
2013-08-06 16:11:00,83.0,21.0,-100.00,SSE,167,2.0,7.0,10,-99.99,,,-99.99,,2013-08-06 23:11:00,
2013-08-06 16:22:00,86.0,21.0,-100.00,SSW,203,3.0,9.0,9,-99.99,,,-99.99,,2013-08-06 23:22:00,
2013-08-06 16:32:00,86.0,21.0,-100.00,SSW,203,3.0,9.0,9,-99.99,,,-99.99,,2013-08-06 23:32:00,
2013-08-06 16:43:00,86.0,21.0,-100.00,SSW,203,3.0,9.0,9,-99.99,,,-99.99,,2013-08-06 23:43:00,
2013-08-06 16:52:00,86.0,21.0,-100.00,SSW,203,3.0,9.0,9,-99.99,,,-99.99,,2013-08-06 23:52:00,
2013-08-06 17:01:00,83.0,21.0,-100.00,SSE,152,12.0,20.0,10,-99.99,,,-99.99,,2013-08-07 00:01:00,
2013-08-06 17:11:00,83.0,21.0,-100.00,SSE,152,12.0,20.0,10,-99.99,,,-99.99,,2013-08-07 00:11:00,
2013-08-06 17:21:00,83.0,21.0,-100.00,SSE,152,12.0,20.0,10,-99.99,,,-99.99,,2013-08-07 00:21:00,
2013-08-06 17:43:00,84.0,22.0,-100.00,SE,141,13.0,23.0,10,-99.99,,,-99.99,,2013-08-07 00:43:00,
2013-08-06 17:52:00,85.0,20.0,-100.00,SSE,168,18.0,28.0,9,-99.99,,,-99.99,,2013-08-07 00:52:00,
2013-08-06 18:01:00,85.0,20.0,-100.00,SSE,168,18.0,28.0,9,-99.99,,,-99.99,,2013-08-07 01:01:00,
2013-08-06 18:11:00,85.0,20.0,-100.00,SSE,168,18.0,28.0,9,-99.99,,,-99.99,,2013-08-07 01:11:00,
2013-08-06 18:43:00,83.0,21.0,-100.00,SSE,165,15.0,32.0,10,-99.99,,,-99.99,,2013-08-07 01:43:00,
2013-08-06 18:52:00,81.0,19.0,-100.00,SE,141,14.0,25.0,10,-99.99,,,-99.99,,2013-08-07 01:52:00,
2013-08-06 19:02:00,81.0,19.0,-100.00,SE,141,14.0,25.0,10,-99.99,,,-99.99,,2013-08-07 02:02:00,
2013-08-06 19:11:00,81.0,22.0,-100.00,ESE,120,13.0,22.0,11,-99.99,,,-99.99,,2013-08-07 02:11:00,
2013-08-06 19:22:00,81.0,22.0,-100.00,ESE,120,13.0,22.0,11,-99.99,,,-99.99,,2013-08-07 02:22:00,
2013-08-06 19:33:00,80.0,21.0,-100.00,SE,140,13.0,22.0,11,-99.99,,,-99.99,,2013-08-07 02:33:00,
2013-08-06 19:43:00,80.0,21.0,-100.00,SE,140,13.0,22.0,11,-99.99,,,-99.99,,2013-08-07 02:43:00,
2013-08-06 19:53:00,80.0,21.0,-100.00,SE,140,13.0,22.0,11,-99.99,,,-99.99,,2013-08-07 02:53:00,
2013-08-06 20:21:00,78.0,21.0,-100.00,SSE,158,12.0,20.0,12,-99.99,,,-99.99,,2013-08-07 03:21:00,
2013-08-06 21:01:00,78.0,21.0,-100.00,North,-999,-999.0,-999.0,12,-99.99,,,-99.99,,2013-08-07 04:01:00,
2013-08-06 22:02:00,72.0,21.0,-100.00,North,-999,-999.0,-999.0,14,-99.99,,,-99.99,,2013-08-07 05:02:00,
2013-08-06 22:11:00,72.0,20.0,-100.00,NE,45,5.0,7.0,14,-99.99,,,-99.99,,2013-08-07 05:11:00,
2013-08-06 22:22:00,72.0,20.0,-100.00,NE,45,5.0,7.0,14,-99.99,,,-99.99,,2013-08-07 05:22:00,
2013-08-06 22:32:00,77.0,22.0,-100.00,ENE,61,6.0,15.0,13,-99.99,,,-99.99,,2013-08-07 05:32:00,
2013-08-06 22:43:00,77.0,22.0,-100.00,ENE,61,6.0,15.0,13,-99.99,,,-99.99,,2013-08-07 05:43:00,
2013-08-06 22:52:00,73.0,21.0,-100.00,SSE,157,6.0,11.0,14,-99.99,,,-99.99,,2013-08-07 05:52:00,
2013-08-06 23:02:00,73.0,21.0,-100.00,SSE,157,6.0,11.0,14,-99.99,,,-99.99,,2013-08-07 06:02:00,
2013-08-06 23:11:00,73.0,21.0,-100.00,SSE,157,6.0,11.0,14,-99.99,,,-99.99,,2013-08-07 06:11:00,
2013-08-06 23:22:00,73.0,23.0,-100.00,ENE,68,3.0,8.0,15,-99.99,,,-99.99,,2013-08-07 06:22:00,
2013-08-06 23:32:00,73.0,23.0,-100.00,ENE,68,3.0,8.0,15,-99.99,,,-99.99,,2013-08-07 06:32:00,
2013-08-06 23:43:00,73.0,23.0,-100.00,ENE,68,3.0,8.0,15,-99.99,,,-99.99,,2013-08-07 06:43:00,
2013-08-06 23:52:00,70.0,16.0,-100.00,North,-999,-999.0,-999.0,13,-99.99,,,-99.99,,2013-08-07 06:52:00,